Regional Weather Roundup
Issued by NWS Cleveland, OH

Home | Current Version | Previous Version | Graphics & Text | Print | Product List | Glossary On
Versions: 1 2 3 4 5 6 7 8 9 10 11 12 13 14 15 16 17 18 19 20 21 22 23 24 25 26 27 28 29 30 31 32 33 34 35 36 37 38 39 40 41 42 43 44 45 46 47 48 49 50
000
ASUS41 KCLE 300810
RWRCLE
OHIO REGIONAL WEATHER ROUNDUP
NATIONAL WEATHER SERVICE WILMINGTON, OH
400 AM EDT TUE AUG 30 2016

NOTE: "FAIR" INDICATES FEW OR NO CLOUDS BELOW 12,000 FEET WITH NO
SIGNIFICANT WEATHER AND/OR OBSTRUCTIONS TO VISIBILITY.

OHZ001>008-015>018-024>027-034-035-043-044-300900-
   NORTHWEST OHIO

CITY           SKY/WX    TMP DP  RH WIND       PRES   REMARKS
DEFIANCE       FAIR      65  62  90 CALM      30.19F
FINDLAY        FAIR      64  58  80 CALM      30.19F
TOLEDO EXPRESS FAIR      62  62 100 CALM      30.19F
TOLEDO EXEC    FAIR      63  63 100 CALM      30.20F FOG
LIMA           FAIR      62  62 100 E5        30.20S
$$

OHZ009>014-019>023-028>033-038-089-300900-
   NORTHEAST OHIO

CITY           SKY/WX    TMP DP  RH WIND       PRES   REMARKS
CLE-HOPKINS    FAIR      61  56  83 SW3       30.22R
CLE-LAKEFRONT  FAIR      67  57  70 SE7       30.19R
CUY CO. ARPT   NOT AVBL
LORAIN-ELYRIA  FAIR      58  57  97 CALM      30.21S FOG
ASHTABULA      FAIR      55  55 100 CALM      30.21F
AKRON-CANTON   FAIR      62  56  80 E5        30.21S
WOOSTER        FAIR      58  55  90 CALM      30.22R
MANSFIELD      FAIR      65  57  75 SE3       30.22R
YOUNGSTOWN     FAIR      56  54  93 E5        30.21S
$$

OHZ042-051>053-060>062-070>072-077>081-300900-
  SOUTHWEST OHIO

CITY           SKY/WX    TMP DP  RH WIND       PRES   REMARKS
CINC-COVINGTON FAIR      75  70  84 NE6       30.17R
CINC-LUNKEN    FAIR      70  70 100 N3        30.17R
HAMILTON       FAIR      68  65  90 CALM      30.18S
DAYTON         FAIR      67  64  90 N3        30.20S
WRIGHT-PAT AFB FAIR      70  66  89 N2        30.19R
DAYTON GENERAL FAIR      68  65  90 NE8       30.18R
WILMINGTON     FAIR      65  64  97 CALM      30.19R
$$

OHZ036-037-039>041-045>050-054>059-063>069-073>076-082>088-300900-
  CENTRAL AND SOUTHEAST OHIO

CITY           SKY/WX    TMP DP  RH WIND       PRES   REMARKS
COLUMBUS       FAIR      68  60  75 E3        30.18S
OSU AIRPORT    FAIR      65  60  84 N5        30.19S
BOLTON FIELD   FAIR      67  62  84 CALM      30.19S
RICKENBACK AFB FAIR      65  62  88 NE5       30.18S
NEWARK         FAIR      62  60  93 E3        30.19R
MARION         FAIR      63  59  87 CALM      30.21R
LANCASTER      FAIR      63  62  97 CALM      30.18S
ZANESVILLE     FAIR      61  59  93 CALM      30.19R
NEW PHILLY     FAIR      61  56  83 CALM      30.21R
$$




USA.gov is the U.S. government's official web portal to all federal, state and local government web resources and services.